PSLV R/B, 41791

Orbit data source: Space-Track

PSLV R/B, 41791 is space debris in SSO originally from a launch on Mon, 26 Sep 2016 UTC launched from the Sirharikota (SRI). Debris objects in space refer to the collection of defunct objects orbiting the Earth. Examples of debris include non-operational satellites, rocket bodies, and fragments generated from explosions, collisions, or faulty payload assembly.

Loading next visibility...
Identifier
41791, 2016-059J
Orbit
SSO
Country
Flag of ININ / IND
Related business
Manufacturer
VSSC/LPSC
Mission
Spacecraft
Bus & Motor
PS-4, Unknown motor
Mass
920 kg wet, 920 kg dry
Launch date (UTC)
2016-09-26 (10 years ago)
Launch vehicle
Unknown
Launch site
Sirharikota (SRI)
Object type
Payload
Rocket body
Debris
Shape & HBR
Cyl + Cyl + 2 Nozzle, 1.5 m
Radar Cross Section
3.727 m², Large (>1 m²)

Expand to show TLE details & history
Last TLE update: 2 days ago

TLE from 2 days ago
0 PSLV R/B
1 41791U 16059J   26170.99996751  .00000277  00000-0  61552-4 0  9993
2 41791  97.8338 182.0495 0039183 276.7838  82.8907 14.63666424519085
Epoch: 2026-06-19T23:59Z
TLE epoch observation values (Epoch: 2026-06-19T23:59:57.192Z)
Latitude
-0.00008°
Longitude
-86.15967°
Altitude
681.044 km
Speed
7.518 km/s
True Right ascension
12h 08m 11s
True Declination
0° 00' 00"
Sunlit
Object was in daylight at epoch
Visualization orbit readout
Latitude
Unknown
Longitude
Unknown
Altitude
Unknown
Speed
Unknown
Apparent Right ascension
Unknown
Apparent Declination
Unknown
Sunlit
N/A
Visualization observer readout
Local Sidereal Time
21:35:24
Azimuth
Unknown
Elevation
Unknown
Doppler factor
Unknown
Orbital elements
Apogee altitude
706.07 km
Perigee altitude
650.77 km
Semi-major axis
7,056.557 km
Eccentricity
0.00392
Inclination
97.8338°
RAAN
182.0495°
Arg. of periapsis
276.7838°
True anomaly
83.33652°
Mean anomaly
82.8907°
Eccentric anomaly
83.11358°
Mean motion
3.66146 °/min
Orbital period
98.32 mins
BSTAR
0.000061552
Loading maneuver chart data...
Computing Atmospheric mass density...
Loading historical data...
Loading historical data...
Loading historical data...
Loading historical data...
Loading historical data...
Loading historical data...
Loading historical data...

Documentation

Showing up to 5 results
|